Waarnemingen

Advertentie
Mijn weer
Tholey, Duitsland (10706): temperatuur & dauwpunt: 16.10.2017 12:00:00 - 22.10.2017 12:00:00 (CEST)Tholey, Duitsland (10706): temperatuur 5cm & temperatuur -5cm: 16.10.2017 12:00:00 - 22.10.2017 12:00:00 (CEST)Tholey, Duitsland (10706): temperatuur -20cm & temperatuur -100cm: 16.10.2017 12:00:00 - 22.10.2017 12:00:00 (CEST)Tholey, Duitsland (10706): windsnelheid & windstoten: 16.10.2017 12:00:00 - 22.10.2017 12:00:00 (CEST)Tholey, Duitsland (10706): windrichting: 16.10.2017 12:00:00 - 22.10.2017 12:00:00 (CEST)Tholey, Duitsland (10706): luchtdruk: 16.10.2017 12:00:00 - 22.10.2017 12:00:00 (CEST)Tholey, Duitsland (10706): zicht: 16.10.2017 12:00:00 - 22.10.2017 12:00:00 (CEST)Tholey, Duitsland (10706): Zonneschijnduur: 16.10.2017 12:00:00 - 22.10.2017 12:00:00 (CEST)Tholey, Duitsland (10706): neerslag: 16.10.2017 12:00:00 - 22.10.2017 12:00:00 (CEST)
Datum & Tijd tt [°C] td [°C] tt 5cm [°C] tt -5cm [°C] tt -20cm [°C] tt -100cm [°C] ff [km/u] ff [kn] fx [km/u] fx [kn] dd ppp [hPa] vv [km] sd [min] rr [mm]
22.10.2017 12:00:00 7,5 6,0 - - - - 28 15 43 23 WZW 1016,3 26 0 -
22.10.2017 11:00:00 7,8 5,6 7,3 8,4 10,7 13,7 31 17 46 25 WZW 1016,0 20 0 0,2
22.10.2017 10:00:00 7,9 5,2 7,7 8,0 10,8 13,7 29 15 41 22 WZW 1015,9 35 0 0,0
22.10.2017 09:00:00 7,7 5,0 7,5 8,0 10,9 13,7 27 14 46 25 WZW 1015,7 38 0 0,0
22.10.2017 08:00:00 7,7 5,0 7,4 8,0 11,0 13,7 26 14 53 29 WZW 1015,8 36 0 0,0
22.10.2017 07:00:00 8,0 5,0 7,7 8,2 11,1 13,7 33 18 49 26 WZW 1015,9 37 0 0,0
22.10.2017 06:00:00 8,3 5,8 8,0 8,5 11,2 13,7 32 17 47 25 WZW 1015,8 41 0 0,0
22.10.2017 05:00:00 8,6 6,2 8,3 8,7 11,3 13,7 28 15 42 23 WZW 1016,1 35 0 0,0
22.10.2017 04:00:00 8,6 6,3 8,3 8,8 11,4 13,7 28 15 42 23 WZW 1016,2 42 0 0,0
22.10.2017 03:00:00 8,9 6,9 8,3 8,7 11,5 13,7 22 12 42 23 ZW 1016,6 46 0 0,0
22.10.2017 02:00:00 9,4 7,6 8,8 9,1 11,6 13,7 22 12 34 19 ZW 1016,3 37 0 0,0
22.10.2017 01:00:00 9,5 7,9 9,1 9,5 11,7 13,7 19 11 38 21 WZW 1016,6 35 0 0,0
22.10.2017 00:00:00 9,2 8,2 8,4 9,4 11,8 13,7 16 9 31 17 WZW 1016,4 24 0 0,0
21.10.2017 23:00:00 9,7 8,4 9,4 10,1 11,9 13,7 19 10 32 17 ZW 1016,5 35 0 0,0
21.10.2017 22:00:00 9,8 8,6 9,5 10,3 12,0 13,7 17 9 29 16 ZW 1016,4 31 0 0,0
21.10.2017 21:00:00 10,0 8,5 9,4 10,3 12,1 13,7 22 12 34 18 ZW 1015,9 40 0 0,0
21.10.2017 20:00:00 10,7 8,2 9,6 10,7 12,1 13,7 16 9 32 17 ZW 1015,5 25 0 0,0
21.10.2017 19:00:00 10,9 8,7 9,9 11,2 12,1 13,7 19 10 39 21 ZW 1015,4 46 0 0,6
21.10.2017 18:00:00 12,1 9,2 11,6 12,0 12,1 13,7 17 9 35 19 WZW 1014,9 62 0 0,0
21.10.2017 17:00:00 12,9 11,6 12,6 12,7 12,0 13,7 18 10 31 17 WZW 1014,7 33 0 0,0
21.10.2017 16:00:00 13,2 12,2 13,1 13,3 11,9 13,7 15 8 35 19 WZW 1014,5 24 0 0,0
21.10.2017 15:00:00 13,3 12,8 13,3 13,1 11,7 13,7 24 13 34 18 WZW 1014,7 15 0 1,0
21.10.2017 14:00:00 13,0 12,7 13,1 13,0 11,5 13,7 20 11 30 16 WZW 1015,0 4,2 0 2,1
21.10.2017 13:00:00 12,8 12,3 12,8 12,9 11,4 13,7 17 9 29 16 WZW 1015,2 3,1 0 0,5
21.10.2017 12:00:00 12,6 11,6 12,9 12,5 11,2 13,7 10 6 16 9 WZW 1015,4 12 0 0,4
21.10.2017 11:00:00 12,3 11,0 11,9 11,9 11,1 13,7 9 5 14 8 ZW 1015,3 1,7 0 0,0
21.10.2017 10:00:00 11,5 10,4 11,8 11,2 11,0 13,7 5 3 15 8 WZW 1015,6 15 0 0,0
21.10.2017 09:00:00 10,2 9,5 9,8 9,7 11,0 13,7 6 3 13 7 ZW 1015,3 10 0 0,0
21.10.2017 08:00:00 9,9 9,1 9,6 9,2 11,0 13,7 6 4 10 5 W 1015,5 13 0 0,0
21.10.2017 07:00:00 9,4 8,7 8,9 8,8 11,1 13,7 5 3 10 6 W 1015,7 12 0 0,0
21.10.2017 06:00:00 8,7 8,4 7,0 8,0 11,2 13,7 4 2 7 4 ZW 1016,2 6 0 0,0
21.10.2017 05:00:00 8,6 8,1 7,2 7,7 11,3 13,7 4 2 6 4 WZW 1016,3 10 0 0,0
21.10.2017 04:00:00 8,5 8,0 5,2 7,0 11,5 13,7 2 1 6 3 ZZW 1016,7 9 0 0,0
21.10.2017 03:00:00 8,6 7,8 5,0 7,5 11,6 13,7 6 3 8 4 WZW 1017,0 12 0 0,0
21.10.2017 02:00:00 8,6 7,4 7,4 8,4 11,7 13,7 8 4 8 5 W 1017,0 16 0 0,0
21.10.2017 01:00:00 8,9 7,2 7,7 8,3 11,9 13,7 6 4 11 6 W 1016,8 19 0 0,0
21.10.2017 00:00:00 8,9 6,3 7,5 7,9 12,1 13,7 9 5 11 6 W 1016,9 37 0 0,0
20.10.2017 23:00:00 8,5 6,3 5,0 7,9 12,3 13,7 7 4 17 9 WZW 1017,3 36 0 0,0
20.10.2017 22:00:00 9,0 6,3 6,7 8,3 12,4 13,7 12 6 15 8 W 1016,9 35 0 0,0
20.10.2017 21:00:00 9,9 6,5 7,8 8,9 12,6 13,7 13 7 16 9 W 1016,8 44 0 0,0
20.10.2017 20:00:00 10,7 6,3 8,6 9,5 12,8 13,7 10 6 22 12 W 1016,5 54 0 0,0
20.10.2017 19:00:00 11,1 5,8 8,9 10,0 12,9 13,7 14 8 31 17 WZW 1015,9 68 22 0,0
20.10.2017 18:00:00 12,9 6,2 11,6 11,7 12,9 13,7 21 11 37 20 WZW 1015,2 48 53 0,0
20.10.2017 17:00:00 13,2 6,9 12,4 12,8 12,9 13,7 22 12 34 18 W 1014,8 67 6 0,0
20.10.2017 16:00:00 12,7 7,7 12,6 14,0 12,8 13,7 22 12 43 23 WZW 1014,8 70 41 0,0
20.10.2017 15:00:00 12,9 7,9 14,5 15,1 12,7 13,7 30 16 42 23 WZW 1014,3 30 45 0,0
20.10.2017 14:00:00 11,5 8,1 12,2 13,1 12,7 13,7 29 16 40 22 WZW 1014,8 47 3 0,0
20.10.2017 13:00:00 10,4 8,9 10,7 12,1 12,7 13,7 23 13 34 18 WZW 1014,9 45 0 0,3
20.10.2017 12:00:00 10,0 9,0 9,9 11,6 12,7 13,7 23 12 53 29 WZW 1014,8 14 0 0,4
20.10.2017 11:00:00 13,7 10,2 12,4 12,7 12,6 13,7 32 17 48 26 WZW 1012,8 10 16 0,0
20.10.2017 10:00:00 13,4 10,0 12,3 12,4 12,6 13,7 19 11 30 16 ZZW 1012,4 15 7 0,0
20.10.2017 09:00:00 12,6 11,1 11,8 11,8 12,7 13,7 19 10 28 15 ZW 1012,6 4,4 0 0,9
20.10.2017 08:00:00 12,3 10,2 11,2 11,6 12,7 13,7 19 11 44 24 WZW 1012,3 7 0 0,8
20.10.2017 07:00:00 14,8 7,3 13,0 11,5 12,7 13,7 8 4 14 7 ZW 1011,6 41 0 0,0
20.10.2017 06:00:00 15,2 6,5 13,3 11,4 12,8 13,7 9 5 14 8 ZZW 1011,7 34 0 0,0
20.10.2017 05:00:00 15,5 6,1 13,4 11,3 12,8 13,7 8 5 12 7 Z 1011,6 45 0 0,0
20.10.2017 04:00:00 16,0 5,4 14,0 11,2 12,9 13,7 9 5 15 8 Z 1011,8 48 0 0,0
20.10.2017 03:00:00 16,2 5,1 13,4 11,0 13,0 13,7 8 5 12 7 ZZW 1012,3 46 0 0,0
20.10.2017 02:00:00 15,4 5,7 12,1 10,3 13,2 13,7 4 2 9 5 ZO 1012,2 44 0 0,0
20.10.2017 01:00:00 15,2 6,0 9,0 10,0 13,4 13,7 4 2 9 5 ZZO 1011,9 44 0 0,0
20.10.2017 00:00:00 15,7 6,5 10,7 10,6 13,6 13,7 3 1 9 5 ZZW 1011,8 41 0 0,0
19.10.2017 23:00:00 15,6 6,8 10,2 11,1 13,8 13,7 3 2 9 5 Z 1012,1 39 0 0,0
19.10.2017 22:00:00 16,3 6,8 11,2 11,7 14,0 13,7 5 3 10 5 Z 1012,0 38 0 0,0
19.10.2017 21:00:00 16,6 7,1 11,5 12,8 14,1 13,7 5 3 10 5 O 1011,9 40 0 0,0
19.10.2017 20:00:00 17,8 6,8 14,9 13,4 14,2 13,7 7 4 16 9 ZZW 1011,8 44 0 0,0
19.10.2017 19:00:00 18,8 8,0 15,3 14,6 14,2 13,7 10 5 16 9 ZZW 1011,2 47 18 0,0
19.10.2017 18:00:00 19,6 9,0 18,3 16,9 14,1 13,7 8 5 18 10 Z 1010,8 25 60 0,0
19.10.2017 17:00:00 19,8 9,6 19,4 18,4 13,8 13,7 11 6 18 10 ZZW 1010,9 34 54 0,0
19.10.2017 16:00:00 20,1 10,8 22,2 20,3 13,4 13,7 10 6 21 11 WZW 1011,3 28 60 0,0
19.10.2017 15:00:00 19,2 10,2 21,6 20,3 13,0 13,7 15 8 31 17 WZW 1011,6 15 60 0,0
19.10.2017 14:00:00 19,1 10,7 21,8 20,6 12,6 13,7 15 8 25 13 WZW 1011,9 21 57 0,0
19.10.2017 13:00:00 17,6 10,9 21,0 18,4 12,3 13,7 5 3 16 8 ZZW 1013,1 23 36 0,0
19.10.2017 12:00:00 15,5 10,2 16,6 16,3 12,1 13,7 6 3 11 6 Z 1013,8 28 41 0,0
19.10.2017 11:00:00 13,3 9,1 14,3 13,3 12,0 13,7 5 3 9 5 ONO 1014,0 23 24 0,0
19.10.2017 10:00:00 13,3 9,1 13,4 11,7 12,0 13,7 6 3 11 6 NO 1013,8 22 57 0,0
19.10.2017 09:00:00 12,0 7,9 10,1 9,5 12,1 13,7 8 4 10 5 ONO 1013,5 22 20 0,0
19.10.2017 08:00:00 11,9 7,8 8,4 8,9 12,2 13,7 6 3 11 6 NO 1013,2 22 0 0,0
19.10.2017 07:00:00 12,1 7,9 8,0 9,0 12,4 13,7 8 5 11 6 ONO 1013,4 23 0 0,0
19.10.2017 06:00:00 12,4 8,0 8,1 9,1 12,5 13,7 9 5 10 6 ONO 1013,5 24 0 0,0
19.10.2017 05:00:00 12,3 8,2 8,7 9,3 12,6 13,7 9 5 11 6 ONO 1013,5 21 0 0,0
19.10.2017 04:00:00 12,9 8,3 7,7 9,3 12,8 13,7 7 4 9 5 NO 1013,5 23 0 0,0
19.10.2017 03:00:00 13,0 8,7 8,3 9,5 13,0 13,7 7 4 9 5 NO 1013,9 22 0 0,0
19.10.2017 02:00:00 13,4 8,9 8,2 9,8 13,1 13,7 7 4 10 5 ONO 1013,8 24 0 0,0
19.10.2017 01:00:00 13,7 9,2 9,0 10,0 13,3 13,7 8 4 10 5 NO 1014,1 25 0 0,0
19.10.2017 00:00:00 12,8 9,4 8,5 10,3 13,5 13,7 7 4 9 5 O 1014,2 21 0 0,0
18.10.2017 23:00:00 14,8 9,4 9,6 10,7 13,7 13,7 8 4 8 5 NO 1014,0 34 0 0,0
18.10.2017 22:00:00 14,5 9,2 8,8 11,0 14,0 13,7 6 3 7 4 ONO 1014,0 33 0 0,0
18.10.2017 21:00:00 15,7 9,4 8,8 11,6 14,1 13,7 0 0 7 4 N 1013,9 41 0 0,0
18.10.2017 20:00:00 15,9 9,4 9,7 12,5 14,3 13,7 3 2 8 5 ZZW 1013,7 46 0 0,0
18.10.2017 19:00:00 15,5 9,9 11,8 13,9 14,3 13,7 6 4 15 8 Z 1013,8 29 19 0,0
18.10.2017 18:00:00 17,8 10,2 16,1 16,2 14,2 13,7 8 4 19 11 WZW 1013,4 25 60 0,0
18.10.2017 17:00:00 18,2 9,9 18,8 18,2 13,9 13,7 14 8 27 15 ZW 1013,6 20 60 0,0
18.10.2017 16:00:00 18,7 11,0 21,1 20,1 13,6 13,7 13 7 22 12 Z 1013,7 27 60 0,0
18.10.2017 15:00:00 17,6 10,2 20,1 19,8 13,2 13,7 8 5 12 7 Z 1014,2 34 39 0,0
18.10.2017 14:00:00 17,1 10,6 20,6 20,1 12,9 13,7 7 4 16 9 WZW 1015,0 22 55 0,0
18.10.2017 13:00:00 16,0 10,0 20,7 19,3 12,6 13,7 6 4 13 7 WZW 1015,6 15 55 0,0
18.10.2017 12:00:00 13,8 9,0 15,9 16,2 12,4 13,7 8 5 18 10 WZW 1016,3 18 43 0,0
18.10.2017 11:00:00 12,7 8,6 13,1 14,3 12,3 13,7 12 7 20 11 W 1016,4 12 57 0,0
18.10.2017 10:00:00 11,9 8,0 13,3 11,4 12,4 13,7 8 5 13 7 WZW 1016,8 15 55 0,0
18.10.2017 09:00:00 11,0 7,4 8,1 8,9 12,6 13,7 5 3 9 5 WZW 1016,8 21 8 0,0
18.10.2017 08:00:00 11,2 7,1 7,0 8,6 12,8 13,7 6 4 10 5 ZZW 1016,5 27 0 0,0
18.10.2017 07:00:00 11,2 7,0 6,1 8,9 13,0 13,7 3 2 9 5 Z 1016,7 26 0 0,0
18.10.2017 06:00:00 12,4 7,6 8,2 9,0 13,2 13,7 4 2 11 6 Z 1016,7 26 0 0,0
18.10.2017 05:00:00 12,9 8,1 7,5 9,5 13,4 13,6 3 2 11 6 OZO 1016,8 27 0 0,0
18.10.2017 04:00:00 13,1 9,5 8,7 10,0 13,6 13,6 7 4 11 6 ONO 1017,1 17 0 0,0
18.10.2017 03:00:00 13,9 10,0 8,9 10,4 13,8 13,6 9 5 11 6 ONO 1017,2 19 0 0,0
18.10.2017 02:00:00 14,7 10,3 9,1 10,7 14,0 13,6 8 4 10 6 NO 1017,3 20 0 0,0
18.10.2017 01:00:00 15,1 11,2 9,8 11,2 14,2 13,6 8 4 10 6 NO 1017,5 18 0 0,0
18.10.2017 00:00:00 14,7 11,7 10,7 11,8 14,4 13,6 10 6 13 7 ONO 1017,7 15 0 0,0
17.10.2017 23:00:00 15,3 11,9 11,0 12,2 14,6 13,6 9 5 10 5 NO 1018,3 17 0 0,0
17.10.2017 22:00:00 16,4 12,2 11,1 12,9 14,8 13,6 8 4 9 5 ONO 1018,3 20 0 0,0
17.10.2017 21:00:00 17,3 12,5 11,5 13,7 15,0 13,6 6 4 8 5 ONO 1018,5 23 0 0,0
17.10.2017 20:00:00 18,0 12,5 12,4 14,7 15,1 13,6 4 2 8 4 NO 1018,8 26 0 0,0
17.10.2017 19:00:00 18,2 12,7 15,9 16,4 15,0 13,6 6 3 8 4 ZZO 1018,6 26 10 0,0
17.10.2017 18:00:00 20,0 12,7 19,3 18,6 14,9 13,6 4 2 9 5 ZZW 1018,7 28 54 0,0
17.10.2017 17:00:00 20,3 13,2 21,9 20,7 14,6 13,6 5 3 11 6 Z 1018,9 30 60 0,0
17.10.2017 16:00:00 20,7 12,5 24,0 21,9 14,2 13,6 5 3 11 6 Z 1019,3 22 60 0,0
17.10.2017 15:00:00 20,2 11,9 23,6 22,7 13,7 13,6 9 5 13 7 ZW 1020,2 31 60 0,0
17.10.2017 14:00:00 19,5 11,9 22,9 22,6 13,2 13,6 4 2 11 6 Z 1021,2 26 60 0,0
17.10.2017 13:00:00 18,4 11,2 21,9 21,0 12,8 13,6 5 3 10 6 ZZW 1022,2 23 60 0,0
17.10.2017 12:00:00 16,7 10,6 20,6 18,8 12,5 13,6 5 3 9 5 ZZO 1022,9 23 60 0,0
17.10.2017 11:00:00 14,9 9,6 18,2 15,7 12,4 13,6 5 3 6 4 ZO 1023,4 20 60 0,0
17.10.2017 10:00:00 13,4 9,7 15,0 12,4 12,4 13,6 3 2 5 3 OZO 1024,0 14 60 0,0
17.10.2017 09:00:00 12,2 8,8 10,1 9,7 12,6 13,6 3 2 6 3 O 1024,2 16 15 0,0
17.10.2017 08:00:00 12,1 8,9 7,6 9,2 12,7 13,6 5 3 7 4 ONO 1024,0 16 0 0,0
17.10.2017 07:00:00 12,4 9,0 7,7 9,3 12,9 13,6 5 3 6 3 ONO 1023,7 17 0 0,0
17.10.2017 06:00:00 13,0 9,1 7,8 9,5 13,1 13,6 2 1 6 3 N 1023,6 19 0 0,0
17.10.2017 05:00:00 13,0 9,0 7,8 9,7 13,3 13,6 5 3 9 5 O 1023,6 22 0 0,0
17.10.2017 04:00:00 14,8 8,7 8,6 9,9 13,5 13,6 5 3 7 4 WZW 1023,5 27 0 0,0
17.10.2017 03:00:00 15,9 8,9 9,0 10,3 13,7 13,6 4 2 8 4 WZW 1023,6 30 0 0,0
17.10.2017 02:00:00 15,9 9,0 9,0 10,7 13,9 13,6 3 1 6 3 W 1023,7 30 0 0,0
17.10.2017 01:00:00 16,7 9,4 10,8 11,2 14,0 13,6 4 2 10 5 ZW 1023,6 31 0 0,0
17.10.2017 00:00:00 16,9 9,7 11,9 11,7 14,3 13,6 6 4 14 7 ZZW 1023,8 28 0 0,0
16.10.2017 23:00:00 17,2 10,0 10,2 11,9 14,5 13,6 3 1 9 5 ZW 1023,8 29 0 0,0
16.10.2017 22:00:00 18,1 10,0 12,6 12,6 14,7 13,6 5 3 10 5 ZO 1023,5 29 0 0,0
16.10.2017 21:00:00 18,4 9,9 12,4 13,3 14,8 13,5 5 3 12 7 ZO 1023,5 31 0 0,0
16.10.2017 20:00:00 19,3 10,0 12,8 14,2 15,0 13,5 7 4 11 6 O 1023,2 30 0 0,0
16.10.2017 19:00:00 19,9 9,7 14,8 15,7 14,9 13,5 8 4 9 5 O 1022,8 32 32 0,0
16.10.2017 18:00:00 20,9 10,4 19,8 18,4 14,8 13,5 6 3 14 8 ZZO 1022,8 35 60 0,0
16.10.2017 17:00:00 21,4 10,8 22,2 20,2 14,5 13,5 9 5 14 8 Z 1023,0 28 60 0,0
16.10.2017 16:00:00 21,8 11,2 24,1 21,8 14,1 13,5 6 4 15 8 ZZO 1023,2 30 60 0,0
16.10.2017 15:00:00 21,3 11,1 23,5 22,4 13,7 13,5 9 5 15 8 ZZO 1023,7 39 60 0,0
16.10.2017 14:00:00 20,7 11,8 23,4 22,4 13,2 13,5 5 3 11 6 ZZW 1024,2 26 60 0,0
16.10.2017 13:00:00 18,9 12,5 22,1 20,7 12,8 13,5 4 2 10 5 Z 1024,9 15 60 0,0
16.10.2017 12:00:00 16,7 12,1 19,7 18,2 12,5 13,5 6 3 12 7 WZW 1025,5 17 60 0,0

tt = temperatuur
td = dauwpunt
tt 5cm = temperatuur 5cm
tt -5cm = temperatuur -5cm
tt -20cm = temperatuur -20cm
tt -100cm = temperatuur -100cm
ff = windsnelheid
fx = windstoten
dd = windrichting
ppp = luchtdruk
vv = zicht
sd = Zonneschijnduur
rr = neerslag

Weerstations in de omgeving